Regional Weather Roundup
Issued by NWS Sterling, VA

Home | Current Version | Previous Version | Graphics & Text | Print | Product List | Glossary On
Versions: 1 2 3 4 5 6 7 8 9 10 11 12 13 14 15 16 17 18 19 20 21 22 23 24 25 26 27 28 29 30 31 32 33 34 35 36 37 38 39 40 41
000
ASUS41 KLWX 260910
RWRLWX

REGIONAL WEATHER ROUNDUP
NATIONAL WEATHER SERVICE BALTIMORE MD/WASHINGTON DC
400 AM EST FRI DEC 26 2014

Note: "FAIR" indicates few or no clouds below 12,000 feet
with no significant weather and/or obstructions to visibility.
 TC=TEMPERATURE CELSIUS

 * =Non NWS site. Station does not report precipitation (e.g. rain,
    snow, etc.), thunder, or fog.

DCZ001-MDZ009-015-VAZ040>042-051-053>054-261000-
WASHINGTON METRO

CITY           SKY/WX    TMP DP  RH WIND       PRES   REMARKS
WASHINGTON NAT CLEAR     41  32  70 S6        30.25S
DULLES         CLEAR     31  27  85 CALM      30.23F
ANDREWS AFB    CLEAR     34  29  82 CALM      30.23F
FT BELVOIR     CLEAR     31  29  90 N1        30.25F
QUANTICO       CLEAR     32  28  85 NW8       30.27S WCI  25
COLLEGE PARK*  CLEAR     32  32 100 CALM      30.24R
LEESBURG*      CLEAR     32  32 100 N3        30.24F
MANASSAS*      CLEAR     27  27 100 S5        30.25S
GAITHERSBURG*  CLEAR     28  25  86 CALM      30.26F

$$

MDZ006>007-011-014-261000-
BALTIMORE METRO

CITY           SKY/WX    TMP DP  RH WIND       PRES   REMARKS
BWI AIRPORT    CLEAR     32  27  81 CALM      30.23F
MD SCIENCE CTR   N/A     37  29  72 MISG      30.24S
MARTIN STATE   CLEAR     32  32 100 W3        30.26S
ANNAPOLIS      CLEAR     39  30  70 NW3       30.24S
FORT MEADE*    CLEAR     30  28  93 CALM      30.26F

$$

MDZ012-015-019>023-261000-
MARYLAND EASTERN SHORE

CITY           SKY/WX    TMP DP  RH WIND       PRES   REMARKS
OCEAN CITY     CLEAR     30  28  92 CALM      30.24F
SALISBURY      CLEAR     33  29  85 CALM      30.25S
BAY BRIDGE AP*   N/A     41  32  70 NW7       30.24F
CAMBRIDGE*     CLEAR     32  32 100 CALM      30.24F
EASTON*        CLEAR     37  32  85 SW5       30.28R

$$

MDZ017>025-261000-
SOUTHERN MARYLAND

CITY           SKY/WX    TMP DP  RH WIND       PRES   REMARKS
PATUXENT RIVER CLEAR     30  27  88 CALM      30.24S
ST INIGOES     CLEAR     31  27  85 CALM      30.24F
LEONARDTOWN*   CLEAR     32  30  93 CALM      30.26S

$$

MDZ003>005-261000-
NORTH CENTRAL MARYLAND

CITY           SKY/WX    TMP DP  RH WIND       PRES   REMARKS
FREDERICK*     CLEAR     32  28  86 S3        30.26S
HAGERSTOWN APT CLEAR     37  28  70 SW6       30.22R
WESTMINSTER*   CLEAR     34  30  86 SW5       30.20F

$$

MDZ501>502-261000-
WESTERN MARYLAND

CITY           SKY/WX    TMP DP  RH WIND       PRES   REMARKS
OAKLAND*       CLEAR     30 N/A N/A W9        30.16S WCI  22
CUMBERLAND*    CLEAR     32  30  93 CALM      30.27R

$$

VAZ025>031-261000-
SHENANDOAH VALLEY

CITY           SKY/WX    TMP DP  RH WIND       PRES   REMARKS
WINCHESTER*    CLEAR     30  25  80 SW3       30.23S
FRONT ROYAL*   FAIR      28  27  93 CALM      30.23S
LURAY*         FAIR      30  30 100 CALM      30.24R
NEW MARKET*    FAIR      25  24  96 CALM      30.24S
STAUNTON*      CLEAR     26  23  90 CALM      30.26R
WAYNESBORO*    FAIR      29  25  86 CALM      30.24R

$$

WVZ021-048>050-054>055-261000-
EASTERN WEST VIRGINIA PANHANDLE

CITY           SKY/WX    TMP DP  RH WIND       PRES   REMARKS
MARTINSBURG    CLEAR     33  25  72 W9        30.24R WCI  25
PETERSBURG*    CLEAR     24  24  99 CALM      30.26R

$$

VAZ036>039-050-261000-
CENTRAL FOOTHILLS

CITY           SKY/WX    TMP DP  RH WIND       PRES   REMARKS
CHARLOTTESVILL CLEAR     33  27  78 CALM      30.24R
CULPEPER*      CLEAR     27  27 100 CALM      30.25S
ORANGE*        CLEAR     30  28  93 CALM      30.27R
GORDONSVILLE*  FAIR      27  26  95 CALM      30.25R
WARRENTON*     FAIR      26  26 100 CALM      30.24S

$$

VAZ055>057-261000-
NORTH AND CENTRAL PIEDMONT

CITY           SKY/WX    TMP DP  RH WIND       PRES   REMARKS
FREDERICKSBRG* CLEAR     31  31 100 CALM      30.25S
STAFFORD*      CLEAR     26  26 100 CALM      30.30R

$$

NCZ024-NYZ072-PAZ021-071-VAZ022-071-261000-
OTHER REGIONAL OBSERVATIONS

CITY           SKY/WX    TMP DP  RH WIND       PRES   REMARKS
NEW YORK CITY  CLEAR     42  28  57 VRB6      30.16F
PHILADELPHIA   CLEAR     34  28  79 SW8       30.22R WCI  27
PITTSBURGH     PTCLDY    36  28  73 SW3       30.22R
ROANOKE        CLEAR     34  27  75 VRB6      30.27S
RICHMOND       CLEAR     33  29  85 CALM      30.25F
RALEIGH        PTCLDY    32  29  88 CALM      30.28R

$$

ANZ530>537-261000-
MARINE OBSERVATIONS

STATION/POSITION TIME  TEMP    WIND        PRES
                       AIR SEA DIR/SP/G
                 (UTC) (F)     (DEG/KT/KT) (MB)
THOMAS PT LIGHT  0900   41 43  260/  5/  5 1025.2S
BALT KEY BRIDGE  0900   40     250/  5/  5 1024.0R
COVE POINT       0900   42     300/  3/  3 1024.0F
LEWISETTA        0900   37 44  220/  2/  3 1024.2F
SOLOMONS ISLAND  0900      43                N/A
PINEY POINT      0900          180/  1/  2   N/A

$$



USA.gov is the U.S. government's official web portal to all federal, state and local government web resources and services.